Home > Weather > Newport News > Past weeks

Flag for U.S.A. Weather for the Past 2 Weeks in Newport News, Virginia, U.S.A.

Now
27 °F

Sunny.


Feels Like: 20 °F
Forecast: 16 / 26 °F
Wind: 6 mph from North

Location: Newport News / Williamsburg International Airport

Current Time: Feb 14, 2016 at 2:34:06 PM

Latest Report: Feb 14, 2016 at 1:54 PM


Visibility: 10 mi

Pressure: 30.53 "Hg

Humidity: 31%

Dew point: 0 °F

Location of Newport NewsLocation

Historic Weather in Newport News — Graph

°F

Newport News Temperature Yesterday

Maximum temperature yesterday: 31 °F (at 1:54 PM)
Minimum temperature yesterday: 18 °F (at 11:54 PM)
Average temperature yesterday: 26 °F

High & Low Weather Summary for the Past Weeks

 TemperatureHumidityPressure
High74 °F (Feb 3, 12:54 PM)100% (Feb 4, 3:54 AM)30.58 "Hg (Feb 4, 3:54 AM)
Low15 °F (Feb 14, 4:54 AM)24% (Feb 13, 5:54 PM)29.54 "Hg (Feb 9, 1:54 PM)
Average40 °F66%30.06 "Hg
* Reported Jan 30 12:54 PM — Feb 14 12:54 PM, Newport News, Weather by CustomWeather, © 2016

Note: Actual official high and low records may vary slightly from our data, if they occured in-between our weather recording intervals... More about our weather records

Advertising

Newport News Weather History for the Previous 24 Hours

 ConditionsComfort  
Time TempWeatherWind HumidityBarometerVisibility
12:54 PM
Sun, Feb 14
25 °FSunny.7 mph33%30.55 "Hg10 mi
11:54 AM23 °FSunny.3 mph35%30.56 "Hg10 mi
10:54 AM23 °FSunny.7 mph35%30.58 "Hg10 mi
9:54 AM21 °FSunny.10 mph38%30.58 "Hg10 mi
8:54 AM19 °FSunny.14 mph41%30.58 "Hg10 mi
7:54 AM17 °FSunny.13 mph41%30.57 "Hg10 mi
6:54 AM15 °FClear.8 mph46%30.56 "Hg10 mi
5:54 AM15 °FClear.10 mph44%30.54 "Hg10 mi
4:54 AM15 °FClear.10 mph44%30.51 "Hg10 mi
3:54 AM16 °FClear.12 mph40%30.48 "Hg10 mi
2:54 AM16 °FClear.9 mph43%30.47 "Hg10 mi
1:54 AM16 °FClear.12 mph40%30.47 "Hg10 mi
12:54 AM17 °FClear.14 mph39%30.46 "Hg10 mi
11:54 PM
Sat, Feb 13
18 °FClear.10 mph39%30.45 "Hg10 mi
10:54 PM19 °FClear.13 mph36%30.45 "Hg10 mi
9:54 PM20 °FClear.12 mph34%30.44 "Hg10 mi
8:54 PM21 °FClear.9 mph33%30.41 "Hg10 mi
7:54 PM23 °FClear.13 mph32%30.38 "Hg10 mi
6:54 PM25 °FClear.13 mph32%30.35 "Hg10 mi
5:54 PM27 °FClear.13 mph24%30.32 "Hg10 mi
4:54 PM29 °FSunny.21 mph25%30.27 "Hg10 mi
3:54 PM30 °FSunny.15 mph26%30.25 "Hg10 mi
2:54 PM31 °FPassing clouds.16 mph27%30.24 "Hg10 mi
Weather by CustomWeather, © 2016

See weather overviewHow to use our weather pages